Time,TemperatureF,DewpointF,PressureIn,WindDirection,WindDirectionDegrees,WindSpeedMPH,WindSpeedGustMPH,Humidity,HourlyPrecipIn,Conditions,Clouds,dailyrainin,SoftwareType,DateUTC
2013-06-19 00:11:00,75.0,67.0,-100.00,NNE,12,6.0,12.0,75,0.00,,,0.00,,2013-06-19 10:11:00,
2013-06-19 00:22:00,75.0,67.0,-100.00,NNE,12,6.0,12.0,75,0.00,,,0.00,,2013-06-19 10:22:00,
2013-06-19 00:33:00,75.0,67.0,-100.00,NNE,12,6.0,12.0,75,0.00,,,0.00,,2013-06-19 10:33:00,
2013-06-19 00:41:00,76.0,67.0,-100.00,NE,47,7.0,11.0,75,0.00,,,0.00,,2013-06-19 10:41:00,
2013-06-19 01:02:00,76.0,67.0,-100.00,NE,47,7.0,11.0,75,0.00,,,0.00,,2013-06-19 11:02:00,
2013-06-19 01:11:00,76.0,67.0,-100.00,NE,47,7.0,11.0,75,0.00,,,0.00,,2013-06-19 11:11:00,
2013-06-19 01:22:00,76.0,67.0,-100.00,NE,47,7.0,11.0,75,0.00,,,0.00,,2013-06-19 11:22:00,
2013-06-19 01:33:00,76.0,67.0,-100.00,NE,47,7.0,11.0,75,0.00,,,0.00,,2013-06-19 11:33:00,
2013-06-19 01:41:00,75.0,67.0,-100.00,North,4,5.0,10.0,75,0.00,,,0.00,,2013-06-19 11:41:00,
2013-06-19 02:11:00,75.0,67.0,-100.00,North,4,5.0,10.0,75,0.00,,,0.00,,2013-06-19 12:11:00,
2013-06-19 02:22:00,75.0,67.0,-100.00,North,4,5.0,10.0,75,0.00,,,0.00,,2013-06-19 12:22:00,
2013-06-19 02:34:00,75.0,67.0,-100.00,North,4,5.0,10.0,75,0.00,,,0.00,,2013-06-19 12:34:00,
2013-06-19 02:41:00,75.0,67.0,-100.00,NNE,15,6.0,11.0,76,0.00,,,0.00,,2013-06-19 12:41:00,
2013-06-19 03:11:00,75.0,67.0,-100.00,NNE,15,6.0,11.0,76,0.00,,,0.00,,2013-06-19 13:11:00,
2013-06-19 03:22:00,75.0,67.0,-100.00,NNE,15,6.0,11.0,76,0.00,,,0.00,,2013-06-19 13:22:00,
2013-06-19 03:33:00,75.0,67.0,-100.00,NNE,15,6.0,11.0,76,0.00,,,0.00,,2013-06-19 13:33:00,
2013-06-19 03:41:00,74.0,66.0,-100.00,North,7,5.0,9.0,77,0.00,,,0.00,,2013-06-19 13:41:00,
2013-06-19 04:11:00,74.0,66.0,-100.00,North,7,5.0,9.0,77,0.00,,,0.00,,2013-06-19 14:11:00,
2013-06-19 04:22:00,74.0,66.0,-100.00,North,7,5.0,9.0,77,0.00,,,0.00,,2013-06-19 14:22:00,
2013-06-19 04:33:00,74.0,66.0,-100.00,North,7,5.0,9.0,77,0.00,,,0.00,,2013-06-19 14:33:00,
2013-06-19 04:41:00,74.0,67.0,-100.00,NNW,346,3.0,8.0,78,0.00,,,0.00,,2013-06-19 14:41:00,
2013-06-19 05:01:00,74.0,67.0,-100.00,NNW,346,3.0,8.0,78,0.00,,,0.00,,2013-06-19 15:01:00,
2013-06-19 05:11:00,74.0,67.0,-100.00,NNW,346,3.0,8.0,78,0.00,,,0.00,,2013-06-19 15:11:00,
2013-06-19 05:22:00,74.0,67.0,-100.00,NNW,346,3.0,8.0,78,0.00,,,0.00,,2013-06-19 15:22:00,
2013-06-19 05:33:00,74.0,67.0,-100.00,NNW,346,3.0,8.0,78,0.00,,,0.00,,2013-06-19 15:33:00,
2013-06-19 05:41:00,72.0,65.0,-100.00,NW,325,4.0,7.0,78,0.00,,,0.00,,2013-06-19 15:41:00,
2013-06-19 06:01:00,72.0,65.0,-100.00,NW,325,4.0,7.0,78,0.00,,,0.00,,2013-06-19 16:01:00,
2013-06-19 06:11:00,72.0,65.0,-100.00,NW,325,4.0,7.0,78,0.00,,,0.00,,2013-06-19 16:11:00,
2013-06-19 06:22:00,72.0,65.0,-100.00,NW,325,4.0,7.0,78,0.00,,,0.00,,2013-06-19 16:22:00,
2013-06-19 06:33:00,72.0,65.0,-100.00,NW,325,4.0,7.0,78,0.00,,,0.00,,2013-06-19 16:33:00,
2013-06-19 06:41:00,74.0,67.0,-100.00,NNW,336,3.0,6.0,78,0.00,,,0.00,,2013-06-19 16:41:00,
2013-06-19 07:11:00,74.0,67.0,-100.00,NNW,336,3.0,6.0,78,0.00,,,0.00,,2013-06-19 17:11:00,
2013-06-19 07:22:00,74.0,67.0,-100.00,NNW,336,3.0,6.0,78,0.00,,,0.00,,2013-06-19 17:22:00,
2013-06-19 07:34:00,74.0,67.0,-100.00,NNW,336,3.0,6.0,78,0.00,,,0.00,,2013-06-19 17:34:00,
2013-06-19 07:41:00,78.0,70.0,-100.00,North,10,5.0,7.0,76,0.00,,,0.00,,2013-06-19 17:41:00,
2013-06-19 08:01:00,78.0,70.0,-100.00,North,10,5.0,7.0,76,0.00,,,0.00,,2013-06-19 18:01:00,
2013-06-19 08:11:00,78.0,70.0,-100.00,North,10,5.0,7.0,76,0.00,,,0.00,,2013-06-19 18:11:00,
2013-06-19 08:23:00,78.0,70.0,-100.00,North,10,5.0,7.0,76,0.00,,,0.00,,2013-06-19 18:23:00,
2013-06-19 08:33:00,78.0,70.0,-100.00,North,10,5.0,7.0,76,0.00,,,0.00,,2013-06-19 18:33:00,
2013-06-19 08:41:00,80.0,71.0,-100.00,ENE,69,4.0,10.0,73,0.00,,,0.00,,2013-06-19 18:41:00,
2013-06-19 09:01:00,80.0,71.0,-100.00,ENE,69,4.0,10.0,73,0.00,,,0.00,,2013-06-19 19:01:00,
2013-06-19 09:11:00,80.0,71.0,-100.00,ENE,69,4.0,10.0,73,0.00,,,0.00,,2013-06-19 19:11:00,
2013-06-19 09:22:00,80.0,71.0,-100.00,ENE,69,4.0,10.0,73,0.00,,,0.00,,2013-06-19 19:22:00,
2013-06-19 09:32:00,80.0,71.0,-100.00,ENE,69,4.0,10.0,73,0.00,,,0.00,,2013-06-19 19:32:00,
2013-06-19 09:41:00,82.0,70.0,-100.00,NE,50,7.0,11.0,68,0.00,,,0.00,,2013-06-19 19:41:00,
2013-06-19 10:02:00,82.0,70.0,-100.00,NE,50,7.0,11.0,68,0.00,,,0.00,,2013-06-19 20:02:00,
2013-06-19 10:11:00,82.0,70.0,-100.00,NE,50,7.0,11.0,68,0.00,,,0.00,,2013-06-19 20:11:00,
2013-06-19 10:22:00,82.0,70.0,-100.00,NE,50,7.0,11.0,68,0.00,,,0.00,,2013-06-19 20:22:00,
2013-06-19 10:33:00,82.0,70.0,-100.00,NE,50,7.0,11.0,68,0.00,,,0.00,,2013-06-19 20:33:00,
2013-06-19 10:41:00,82.0,69.0,-100.00,ENE,68,6.0,12.0,64,0.00,,,0.00,,2013-06-19 20:41:00,
2013-06-19 11:02:00,82.0,69.0,-100.00,ENE,68,6.0,12.0,64,0.00,,,0.00,,2013-06-19 21:02:00,
2013-06-19 11:11:00,82.0,69.0,-100.00,ENE,68,6.0,12.0,64,0.00,,,0.00,,2013-06-19 21:11:00,
2013-06-19 11:22:00,82.0,69.0,-100.00,ENE,68,6.0,12.0,64,0.00,,,0.00,,2013-06-19 21:22:00,
2013-06-19 11:33:00,82.0,69.0,-100.00,ENE,68,6.0,12.0,64,0.00,,,0.00,,2013-06-19 21:33:00,
2013-06-19 11:41:00,82.0,68.0,-100.00,East,88,9.0,14.0,63,0.00,,,0.00,,2013-06-19 21:41:00,
2013-06-19 12:11:00,82.0,68.0,-100.00,East,88,9.0,14.0,63,0.00,,,0.00,,2013-06-19 22:11:00,
2013-06-19 12:22:00,82.0,68.0,-100.00,East,88,9.0,14.0,63,0.00,,,0.00,,2013-06-19 22:22:00,
2013-06-19 12:34:00,82.0,68.0,-100.00,East,88,9.0,14.0,63,0.00,,,0.00,,2013-06-19 22:34:00,
2013-06-19 12:41:00,82.0,68.0,-100.00,East,87,15.0,21.0,62,0.00,,,0.00,,2013-06-19 22:41:00,
2013-06-19 13:02:00,82.0,68.0,-100.00,East,87,15.0,21.0,62,0.00,,,0.00,,2013-06-19 23:02:00,
2013-06-19 13:12:00,82.0,68.0,-100.00,East,87,15.0,21.0,62,0.00,,,0.00,,2013-06-19 23:12:00,
2013-06-19 13:23:00,82.0,68.0,-100.00,East,87,15.0,21.0,62,0.00,,,0.00,,2013-06-19 23:23:00,
2013-06-19 13:33:00,82.0,68.0,-100.00,East,87,15.0,21.0,62,0.00,,,0.00,,2013-06-19 23:33:00,
2013-06-19 13:41:00,82.0,68.0,-100.00,East,85,14.0,21.0,62,0.00,,,0.00,,2013-06-19 23:41:00,
2013-06-19 14:11:00,82.0,68.0,-100.00,East,85,14.0,21.0,62,0.00,,,0.00,,2013-06-20 00:11:00,
2013-06-19 14:22:00,82.0,68.0,-100.00,East,85,14.0,21.0,62,0.00,,,0.00,,2013-06-20 00:22:00,
2013-06-19 14:33:00,82.0,68.0,-100.00,East,85,14.0,21.0,62,0.00,,,0.00,,2013-06-20 00:33:00,
2013-06-19 14:41:00,83.0,68.0,-100.00,East,90,12.0,17.0,61,0.00,,,0.00,,2013-06-20 00:41:00,
2013-06-19 15:11:00,83.0,68.0,-100.00,East,90,12.0,17.0,61,0.00,,,0.00,,2013-06-20 01:11:00,
2013-06-19 15:22:00,83.0,68.0,-100.00,East,90,12.0,17.0,61,0.00,,,0.00,,2013-06-20 01:22:00,
2013-06-19 15:33:00,83.0,68.0,-100.00,East,90,12.0,17.0,61,0.00,,,0.00,,2013-06-20 01:33:00,
2013-06-19 15:41:00,83.0,68.0,-100.00,East,90,11.0,17.0,61,0.00,,,0.00,,2013-06-20 01:41:00,
2013-06-19 16:11:00,83.0,68.0,-100.00,East,90,11.0,17.0,61,0.00,,,0.00,,2013-06-20 02:11:00,
2013-06-19 16:24:00,83.0,68.0,-100.00,East,90,11.0,17.0,61,0.00,,,0.00,,2013-06-20 02:24:00,
2013-06-19 16:33:00,83.0,68.0,-100.00,East,90,11.0,17.0,61,0.00,,,0.00,,2013-06-20 02:33:00,
2013-06-19 16:41:00,82.0,67.0,-100.00,ENE,57,10.0,17.0,61,0.00,,,0.00,,2013-06-20 02:41:00,
2013-06-19 17:11:00,82.0,67.0,-100.00,ENE,57,10.0,17.0,61,0.00,,,0.00,,2013-06-20 03:11:00,
2013-06-19 17:22:00,82.0,67.0,-100.00,ENE,57,10.0,17.0,61,0.00,,,0.00,,2013-06-20 03:22:00,
2013-06-19 17:33:00,82.0,67.0,-100.00,ENE,57,10.0,17.0,61,0.00,,,0.00,,2013-06-20 03:33:00,
2013-06-19 17:41:00,81.0,65.0,-100.00,ENE,61,10.0,17.0,59,0.00,,,0.00,,2013-06-20 03:41:00,
2013-06-19 18:11:00,81.0,65.0,-100.00,ENE,61,10.0,17.0,59,0.00,,,0.00,,2013-06-20 04:11:00,
2013-06-19 18:22:00,81.0,65.0,-100.00,ENE,61,10.0,17.0,59,0.00,,,0.00,,2013-06-20 04:22:00,
2013-06-19 18:33:00,81.0,65.0,-100.00,ENE,61,10.0,17.0,59,0.00,,,0.00,,2013-06-20 04:33:00,
2013-06-19 18:41:00,79.0,65.0,-100.00,ENE,71,7.0,16.0,62,0.00,,,0.00,,2013-06-20 04:41:00,
2013-06-19 19:12:00,79.0,65.0,-100.00,ENE,71,7.0,16.0,62,0.00,,,0.00,,2013-06-20 05:12:00,
2013-06-19 19:22:00,79.0,65.0,-100.00,ENE,71,7.0,16.0,62,0.00,,,0.00,,2013-06-20 05:22:00,
2013-06-19 19:33:00,79.0,65.0,-100.00,ENE,71,7.0,16.0,62,0.00,,,0.00,,2013-06-20 05:33:00,
2013-06-19 19:41:00,77.0,64.0,-100.00,NE,56,6.0,14.0,65,0.00,,,0.00,,2013-06-20 05:41:00,
2013-06-19 20:11:00,77.0,64.0,-100.00,NE,56,6.0,14.0,65,0.00,,,0.00,,2013-06-20 06:11:00,
2013-06-19 20:22:00,77.0,64.0,-100.00,NE,56,6.0,14.0,65,0.00,,,0.00,,2013-06-20 06:22:00,
2013-06-19 20:33:00,77.0,64.0,-100.00,NE,56,6.0,14.0,65,0.00,,,0.00,,2013-06-20 06:33:00,
2013-06-19 20:41:00,76.0,65.0,-100.00,ENE,66,6.0,12.0,68,0.00,,,0.00,,2013-06-20 06:41:00,
2013-06-19 21:12:00,76.0,65.0,-100.00,ENE,66,6.0,12.0,68,0.00,,,0.00,,2013-06-20 07:12:00,
2013-06-19 21:22:00,76.0,65.0,-100.00,ENE,66,6.0,12.0,68,0.00,,,0.00,,2013-06-20 07:22:00,
2013-06-19 21:34:00,76.0,65.0,-100.00,ENE,66,6.0,12.0,68,0.00,,,0.00,,2013-06-20 07:34:00,
2013-06-19 21:41:00,76.0,65.0,-100.00,NE,44,6.0,9.0,69,0.00,,,0.00,,2013-06-20 07:41:00,
2013-06-19 22:11:00,76.0,65.0,-100.00,NE,44,6.0,9.0,69,0.00,,,0.00,,2013-06-20 08:11:00,
2013-06-19 22:22:00,76.0,65.0,-100.00,NE,44,6.0,9.0,69,0.00,,,0.00,,2013-06-20 08:22:00,
2013-06-19 22:34:00,76.0,65.0,-100.00,NE,44,6.0,9.0,69,0.00,,,0.00,,2013-06-20 08:34:00,
2013-06-19 22:41:00,75.0,64.0,-100.00,NNW,337,3.0,9.0,69,0.00,,,0.00,,2013-06-20 08:41:00,
2013-06-19 23:01:00,75.0,64.0,-100.00,NNW,337,3.0,9.0,69,0.00,,,0.00,,2013-06-20 09:01:00,
2013-06-19 23:11:00,75.0,64.0,-100.00,NNW,337,3.0,9.0,69,0.00,,,0.00,,2013-06-20 09:11:00,
2013-06-19 23:22:00,75.0,64.0,-100.00,NNW,337,3.0,9.0,69,0.00,,,0.00,,2013-06-20 09:22:00,
2013-06-19 23:33:00,75.0,64.0,-100.00,NNW,337,3.0,9.0,69,0.00,,,0.00,,2013-06-20 09:33:00,
2013-06-19 23:41:00,74.0,64.0,-100.00,NNW,338,4.0,7.0,70,0.00,,,0.00,,2013-06-20 09:41:00,